Time,TemperatureF,DewpointF,PressureIn,WindDirection,WindDirectionDegrees,WindSpeedMPH,WindSpeedGustMPH,Humidity,HourlyPrecipIn,Conditions,Clouds,dailyrainin,SoftwareType,DateUTC
2013-01-21 00:09:00,29.0,10.0,29.92,West,259,3.0,8.0,45,0.00,,,0.00,weatherlink.com 1.10,2013-01-21 05:09:00,
2013-01-21 00:24:00,28.9,10.0,29.92,SW,236,1.0,9.0,46,0.00,,,0.00,weatherlink.com 1.10,2013-01-21 05:24:00,
2013-01-21 00:40:00,28.5,10.0,29.93,North,352,2.0,5.0,46,0.00,,,0.00,weatherlink.com 1.10,2013-01-21 05:40:00,
2013-01-21 00:55:00,28.3,11.0,29.94,WNW,283,0.0,8.0,48,0.00,,,0.00,weatherlink.com 1.10,2013-01-21 05:55:00,
2013-01-21 01:10:00,28.1,10.0,29.95,SE,146,2.0,5.0,47,0.00,,,0.00,weatherlink.com 1.10,2013-01-21 06:10:00,
2013-01-21 01:25:00,28.2,9.0,29.95,West,266,1.0,9.0,45,0.00,,,0.00,weatherlink.com 1.10,2013-01-21 06:25:00,
2013-01-21 01:40:00,28.0,9.0,29.96,NNW,330,1.0,12.0,45,0.00,,,0.00,weatherlink.com 1.10,2013-01-21 06:40:00,
2013-01-21 01:55:00,27.8,9.0,29.97,North,1,0.0,9.0,45,0.00,,,0.00,weatherlink.com 1.10,2013-01-21 06:55:00,
2013-01-21 02:10:00,27.7,9.0,29.98,West,270,4.0,8.0,46,0.00,,,0.00,weatherlink.com 1.10,2013-01-21 07:10:00,
2013-01-21 02:25:00,27.4,10.0,29.99,WNW,295,3.0,7.0,49,0.00,,,0.00,weatherlink.com 1.10,2013-01-21 07:25:00,
2013-01-21 02:40:00,27.1,11.0,30.00,NW,305,2.0,7.0,50,0.00,,,0.00,weatherlink.com 1.10,2013-01-21 07:40:00,
2013-01-21 02:55:00,26.7,11.0,30.00,NNE,18,4.0,9.0,51,0.00,,,0.00,weatherlink.com 1.10,2013-01-21 07:55:00,
2013-01-21 03:10:00,26.4,11.0,30.00,NW,317,1.0,9.0,52,0.00,,,0.00,weatherlink.com 1.10,2013-01-21 08:10:00,
2013-01-21 03:25:00,26.1,11.0,30.01,NNW,335,3.0,10.0,53,0.00,,,0.00,weatherlink.com 1.10,2013-01-21 08:25:00,
2013-01-21 03:40:00,25.7,11.0,30.01,NNW,339,1.0,11.0,54,0.00,,,0.00,weatherlink.com 1.10,2013-01-21 08:40:00,
2013-01-21 03:55:00,25.4,10.0,30.02,NW,309,0.0,7.0,53,0.00,,,0.00,weatherlink.com 1.10,2013-01-21 08:55:00,
2013-01-21 04:10:00,25.0,11.0,30.02,NNW,327,1.0,5.0,55,0.00,,,0.00,weatherlink.com 1.10,2013-01-21 09:10:00,
2013-01-21 04:25:00,24.7,8.0,30.03,WSW,252,4.0,8.0,50,0.00,,,0.00,weatherlink.com 1.10,2013-01-21 09:25:00,
2013-01-21 04:40:00,24.4,8.0,30.03,WSW,257,0.0,8.0,50,0.00,,,0.00,weatherlink.com 1.10,2013-01-21 09:40:00,
2013-01-21 04:55:00,24.1,8.0,30.03,West,275,2.0,4.0,51,0.00,,,0.00,weatherlink.com 1.10,2013-01-21 09:55:00,
2013-01-21 05:10:00,23.5,9.0,30.04,North,358,0.0,2.0,54,0.00,,,0.00,weatherlink.com 1.10,2013-01-21 10:10:00,
2013-01-21 05:25:00,23.1,9.0,30.04,NNW,347,3.0,3.0,55,0.00,,,0.00,weatherlink.com 1.10,2013-01-21 10:25:00,
2013-01-21 05:41:00,23.2,8.0,30.05,West,277,0.0,7.0,52,0.00,,,0.00,weatherlink.com 1.10,2013-01-21 10:41:00,
2013-01-21 05:56:00,23.0,7.0,30.05,WNW,293,0.0,5.0,51,0.00,,,0.00,weatherlink.com 1.10,2013-01-21 10:56:00,
2013-01-21 06:11:00,22.7,7.0,30.06,NNW,340,1.0,2.0,52,0.00,,,0.00,weatherlink.com 1.10,2013-01-21 11:11:00,
2013-01-21 06:26:00,22.5,7.0,30.06,WNW,287,4.0,4.0,51,0.00,,,0.00,weatherlink.com 1.10,2013-01-21 11:26:00,
2013-01-21 06:41:00,22.4,7.0,30.06,WNW,294,0.0,4.0,51,0.00,,,0.00,weatherlink.com 1.10,2013-01-21 11:41:00,
2013-01-21 06:56:00,22.2,6.0,30.06,West,273,0.0,1.0,51,0.00,,,0.00,weatherlink.com 1.10,2013-01-21 11:56:00,
2013-01-21 07:11:00,21.5,7.0,30.07,WSW,255,0.0,0.0,54,0.00,,,0.00,weatherlink.com 1.10,2013-01-21 12:11:00,
2013-01-21 07:26:00,20.8,7.0,30.06,SSW,203,0.0,1.0,56,0.00,,,0.00,weatherlink.com 1.10,2013-01-21 12:26:00,
2013-01-21 07:41:00,20.5,8.0,30.08,SSW,203,0.0,1.0,58,0.00,,,0.00,weatherlink.com 1.10,2013-01-21 12:41:00,
2013-01-21 07:56:00,21.7,8.0,30.09,West,265,4.0,6.0,57,0.00,,,0.00,weatherlink.com 1.10,2013-01-21 12:56:00,
2013-01-21 08:11:00,23.1,9.0,30.09,SW,215,1.0,4.0,55,0.00,,,0.00,weatherlink.com 1.10,2013-01-21 13:11:00,
2013-01-21 08:26:00,23.7,8.0,30.09,West,259,4.0,6.0,52,0.00,,,0.00,weatherlink.com 1.10,2013-01-21 13:26:00,
2013-01-21 08:41:00,24.1,8.0,30.10,West,261,1.0,5.0,51,0.00,,,0.00,weatherlink.com 1.10,2013-01-21 13:41:00,
2013-01-21 08:56:00,24.8,8.0,30.10,WSW,239,3.0,5.0,50,0.00,,,0.00,weatherlink.com 1.10,2013-01-21 13:56:00,
2013-01-21 09:11:00,24.9,8.0,30.09,NW,316,2.0,7.0,49,0.00,,,0.00,weatherlink.com 1.10,2013-01-21 14:11:00,
2013-01-21 09:26:00,25.5,9.0,30.09,West,278,0.0,5.0,49,0.00,,,0.00,weatherlink.com 1.10,2013-01-21 14:26:00,
2013-01-21 09:41:00,25.8,8.0,30.10,WNW,290,7.0,9.0,46,0.00,,,0.00,weatherlink.com 1.10,2013-01-21 14:41:00,
2013-01-21 09:56:00,26.7,8.0,30.09,NW,319,3.0,6.0,46,0.00,,,0.00,weatherlink.com 1.10,2013-01-21 14:56:00,
2013-01-21 10:11:00,26.7,6.0,30.09,WSW,238,7.0,7.0,42,0.00,,,0.00,weatherlink.com 1.10,2013-01-21 15:11:00,
2013-01-21 10:26:00,26.6,7.0,30.09,WNW,285,2.0,6.0,43,0.00,,,0.00,weatherlink.com 1.10,2013-01-21 15:26:00,
2013-01-21 10:41:00,26.6,7.0,30.08,SSE,158,0.0,6.0,43,0.00,,,0.00,weatherlink.com 1.10,2013-01-21 15:41:00,
2013-01-21 10:56:00,26.7,7.0,30.07,North,4,3.0,7.0,43,0.00,,,0.00,weatherlink.com 1.10,2013-01-21 15:56:00,
2013-01-21 11:11:00,27.2,7.0,30.06,NNE,20,1.0,3.0,43,0.00,,,0.00,weatherlink.com 1.10,2013-01-21 16:11:00,
2013-01-21 11:26:00,27.4,7.0,30.05,SE,128,0.0,5.0,43,0.00,,,0.00,weatherlink.com 1.10,2013-01-21 16:26:00,
2013-01-21 11:41:00,27.1,8.0,30.04,SW,235,4.0,4.0,44,0.00,,,0.00,weatherlink.com 1.10,2013-01-21 16:41:00,
2013-01-21 11:56:00,27.5,8.0,30.03,WSW,246,0.0,5.0,43,0.00,,,0.00,weatherlink.com 1.10,2013-01-21 16:56:00,
2013-01-21 12:11:00,27.8,8.0,30.02,West,278,2.0,5.0,43,0.00,,,0.00,weatherlink.com 1.10,2013-01-21 17:11:00,
2013-01-21 12:26:00,28.0,8.0,30.01,WSW,256,3.0,6.0,43,0.00,,,0.00,weatherlink.com 1.10,2013-01-21 17:26:00,
2013-01-21 12:41:00,28.0,7.0,30.00,West,259,3.0,7.0,42,0.00,,,0.00,weatherlink.com 1.10,2013-01-21 17:41:00,
2013-01-21 12:56:00,28.1,8.0,30.00,SW,233,2.0,7.0,42,0.00,,,0.00,weatherlink.com 1.10,2013-01-21 17:56:00,
2013-01-21 13:11:00,28.1,8.0,29.99,WSW,250,0.0,6.0,42,0.00,,,0.00,weatherlink.com 1.10,2013-01-21 18:11:00,
2013-01-21 13:26:00,28.4,7.0,29.99,WNW,298,3.0,6.0,41,0.00,,,0.00,weatherlink.com 1.10,2013-01-21 18:26:00,
2013-01-21 13:41:00,28.3,7.0,29.98,WSW,245,1.0,9.0,41,0.00,,,0.00,weatherlink.com 1.10,2013-01-21 18:41:00,
2013-01-21 13:56:00,28.3,8.0,29.98,West,273,1.0,7.0,43,0.00,,,0.00,weatherlink.com 1.10,2013-01-21 18:56:00,
2013-01-21 14:11:00,28.6,9.0,29.98,SW,229,1.0,8.0,44,0.00,,,0.00,weatherlink.com 1.10,2013-01-21 19:11:00,
2013-01-21 14:26:00,28.5,9.0,29.96,SSW,198,2.0,6.0,44,0.00,,,0.00,weatherlink.com 1.10,2013-01-21 19:26:00,
2013-01-21 14:41:00,28.5,9.0,29.96,SW,224,1.0,6.0,44,0.00,,,0.00,weatherlink.com 1.10,2013-01-21 19:41:00,
2013-01-21 14:56:00,28.4,8.0,29.96,SSW,193,2.0,5.0,43,0.00,,,0.00,weatherlink.com 1.10,2013-01-21 19:56:00,
2013-01-21 15:11:00,28.3,9.0,29.96,SW,225,3.0,5.0,44,0.00,,,0.00,weatherlink.com 1.10,2013-01-21 20:11:00,
2013-01-21 15:26:00,28.4,10.0,29.95,South,188,2.0,4.0,46,0.00,,,0.00,weatherlink.com 1.10,2013-01-21 20:26:00,
2013-01-21 15:41:00,28.1,10.0,29.95,SSW,205,0.0,5.0,46,0.00,,,0.00,weatherlink.com 1.10,2013-01-21 20:41:00,
2013-01-21 15:56:00,28.1,10.0,29.95,SW,222,2.0,3.0,47,0.00,,,0.00,weatherlink.com 1.10,2013-01-21 20:56:00,
2013-01-21 16:11:00,28.0,11.0,29.94,SSW,201,1.0,5.0,49,0.00,,,0.00,weatherlink.com 1.10,2013-01-21 21:11:00,
2013-01-21 16:26:00,27.9,12.0,29.93,SE,145,2.0,5.0,51,0.00,,,0.00,weatherlink.com 1.10,2013-01-21 21:26:00,
2013-01-21 16:41:00,27.7,14.0,29.93,SSW,206,3.0,9.0,56,0.00,,,0.00,weatherlink.com 1.10,2013-01-21 21:41:00,
2013-01-21 16:56:00,27.4,14.0,29.92,SSE,153,1.0,5.0,58,0.00,,,0.00,weatherlink.com 1.10,2013-01-21 21:56:00,
2013-01-21 17:12:00,27.0,19.0,29.91,SE,137,0.0,5.0,73,0.00,,,0.00,weatherlink.com 1.10,2013-01-21 22:12:00,
2013-01-21 17:26:00,26.5,21.0,29.92,SSW,207,1.0,3.0,78,0.00,,,0.00,weatherlink.com 1.10,2013-01-21 22:26:00,
2013-01-21 17:41:00,26.1,21.0,29.92,SW,227,2.0,3.0,80,0.00,,,0.00,weatherlink.com 1.10,2013-01-21 22:41:00,
2013-01-21 17:57:00,25.7,22.0,29.91,West,269,1.0,2.0,84,0.00,,,0.00,weatherlink.com 1.10,2013-01-21 22:57:00,
2013-01-21 18:12:00,25.2,22.0,29.92,SW,229,0.0,2.0,86,0.00,,,0.00,weatherlink.com 1.10,2013-01-21 23:12:00,
2013-01-21 18:27:00,25.0,22.0,29.92,SW,220,0.0,1.0,88,0.00,,,0.00,weatherlink.com 1.10,2013-01-21 23:27:00,
2013-01-21 18:42:00,24.8,22.0,29.92,SE,125,0.0,1.0,89,0.00,,,0.00,weatherlink.com 1.10,2013-01-21 23:42:00,
2013-01-21 18:57:00,24.8,22.0,29.91,SE,143,0.0,0.0,90,0.00,,,0.00,weatherlink.com 1.10,2013-01-21 23:57:00,
2013-01-21 19:12:00,24.7,23.0,29.91,ESE,103,0.0,1.0,91,0.00,,,0.00,weatherlink.com 1.10,2013-01-22 00:12:00,
2013-01-21 19:27:00,24.5,22.0,29.90,ESE,110,0.0,1.0,91,0.00,,,0.00,weatherlink.com 1.10,2013-01-22 00:27:00,
2013-01-21 19:42:00,24.5,23.0,29.89,East,97,0.0,1.0,92,0.00,,,0.00,weatherlink.com 1.10,2013-01-22 00:42:00,
2013-01-21 19:57:00,24.4,22.0,29.89,ENE,73,0.0,1.0,92,0.00,,,0.00,weatherlink.com 1.10,2013-01-22 00:57:00,
2013-01-21 20:12:00,24.4,22.0,29.89,ENE,61,0.0,1.0,92,0.00,,,0.00,weatherlink.com 1.10,2013-01-22 01:12:00,
2013-01-21 20:27:00,24.4,23.0,29.89,NE,46,0.0,1.0,93,0.00,,,0.00,weatherlink.com 1.10,2013-01-22 01:27:00,
2013-01-21 20:42:00,24.4,22.0,29.88,East,86,1.0,1.0,92,0.00,,,0.00,weatherlink.com 1.10,2013-01-22 01:42:00,
2013-01-21 20:57:00,24.5,23.0,29.87,ENE,68,0.0,2.0,93,0.00,,,0.00,weatherlink.com 1.10,2013-01-22 01:57:00,
2013-01-21 21:12:00,24.4,23.0,29.87,ENE,57,1.0,1.0,93,0.00,,,0.00,weatherlink.com 1.10,2013-01-22 02:12:00,
2013-01-21 21:27:00,24.4,23.0,29.86,NE,41,0.0,2.0,93,0.00,,,0.00,weatherlink.com 1.10,2013-01-22 02:27:00,
2013-01-21 21:42:00,24.4,23.0,29.86,ENE,70,0.0,1.0,93,0.00,,,0.00,weatherlink.com 1.10,2013-01-22 02:42:00,
2013-01-21 21:57:00,24.2,22.0,29.84,ENE,58,0.0,3.0,92,0.00,,,0.00,weatherlink.com 1.10,2013-01-22 02:57:00,
2013-01-21 22:12:00,24.0,22.0,29.84,NE,51,0.0,3.0,92,0.00,,,0.00,weatherlink.com 1.10,2013-01-22 03:12:00,
2013-01-21 22:27:00,23.8,22.0,29.82,NE,43,0.0,2.0,93,0.00,,,0.00,weatherlink.com 1.10,2013-01-22 03:27:00,
2013-01-21 22:42:00,23.6,22.0,29.82,NNE,12,0.0,2.0,93,0.00,,,0.00,weatherlink.com 1.10,2013-01-22 03:42:00,
2013-01-21 22:57:00,23.5,22.0,29.82,NNE,25,1.0,1.0,93,0.00,,,0.00,weatherlink.com 1.10,2013-01-22 03:57:00,
2013-01-21 23:12:00,23.5,22.0,29.80,ENE,73,0.0,2.0,92,0.00,,,0.00,weatherlink.com 1.10,2013-01-22 04:12:00,
2013-01-21 23:27:00,23.5,22.0,29.79,ENE,78,1.0,1.0,92,0.00,,,0.00,weatherlink.com 1.10,2013-01-22 04:27:00,
2013-01-21 23:42:00,23.4,22.0,29.77,NE,41,0.0,1.0,93,0.00,,,0.00,weatherlink.com 1.10,2013-01-22 04:42:00,
2013-01-21 23:57:00,23.4,22.0,29.78,WNW,294,0.0,0.0,93,0.00,,,0.00,weatherlink.com 1.10,2013-01-22 04:57:00,